When you browse on this site, cookies collect data to enhance your experience and personalize the content and advertising you see.
Visit our Privacy Policy to learn more. By continuing to use the site, you agree to this use of cookies and data.
  • In Österreich
  • Länderverzeichnis
  • Für 7 Tage
  • Wassertemperatur
  • Wetterkarte
  • News
  • Widgets
  • user-avatar
    Anmelden

    Stündliche Wetter Salta

    Heute, 13 Dezember, Freitag

    Zeit Temperatur Niederschläge Wind Luftdruck Luftfeuchtigkeit
    00:00 +19°C° 0.1 mm 2 m/S 652 mmHg 83%
    01:00 +20°C° 0.1 mm 1 m/S 652 mmHg 82%
    02:00 +20°C° 0.1 mm 1 m/S 652 mmHg 81%
    03:00 +19°C° 0 mm 1 m/S 651 mmHg 81%
    04:00 +19°C° 0 mm 1 m/S 651 mmHg 80%
    05:00 +18°C° 0 mm 1 m/S 651 mmHg 80%
    06:00 +19°C° 0 mm 1 m/S 651 mmHg 78%
    07:00 +20°C° 0 mm 1 m/S 652 mmHg 75%
    08:00 +20°C° 0 mm 1 m/S 652 mmHg 72%
    09:00 +22°C° 0 mm 1 m/S 652 mmHg 67%
    10:00 +24°C° 0 mm 2 m/S 652 mmHg 62%
    11:00 +26°C° 0 mm 2 m/S 652 mmHg 57%
    12:00 +27°C° 0 mm 2 m/S 651 mmHg 56%
    13:00 +27°C° 0 mm 3 m/S 650 mmHg 55%
    14:00 +28°C° 0 mm 3 m/S 649 mmHg 54%
    15:00 +28°C° 0 mm 2 m/S 649 mmHg 56%
    16:00 +27°C° 0 mm 2 m/S 648 mmHg 57%
    17:00 +27°C° 0 mm 2 m/S 648 mmHg 59%
    18:00 +26°C° 0 mm 1 m/S 648 mmHg 64%
    19:00 +25°C° 0 mm 1 m/S 648 mmHg 69%
    20:00 +24°C° 0 mm 1 m/S 649 mmHg 74%
    21:00 +23°C° 0.1 mm 1 m/S 649 mmHg 75%
    22:00 +23°C° 0.1 mm 1 m/S 650 mmHg 77%
    23:00 +23°C° 0.1 mm 1 m/S 650 mmHg 79%

    Morgen, 14 Dezember, Samstag

    Zeit Temperatur Niederschläge Wind Luftdruck Luftfeuchtigkeit
    00:00 +23°C° 0 mm 1 m/S 650 mmHg 79%
    01:00 +23°C° 0 mm 1 m/S 649 mmHg 80%
    02:00 +20°C° 0 mm 0 m/S 649 mmHg 80%
    03:00 +20°C° 0 mm 0 m/S 649 mmHg 81%
    04:00 +20°C° 0 mm 0 m/S 649 mmHg 82%
    05:00 +19°C° 0 mm 0 m/S 649 mmHg 83%
    06:00 +23°C° 0 mm 1 m/S 649 mmHg 77%
    07:00 +25°C° 0 mm 1 m/S 650 mmHg 70%
    08:00 +27°C° 0 mm 1 m/S 651 mmHg 64%
    09:00 +28°C° 0 mm 1 m/S 651 mmHg 60%
    10:00 +29°C° 0 mm 2 m/S 651 mmHg 56%
    11:00 +30°C° 0 mm 2 m/S 651 mmHg 52%
    12:00 +31°C° 0.1 mm 2 m/S 650 mmHg 51%
    13:00 +31°C° 0.1 mm 2 m/S 649 mmHg 49%
    14:00 +32°C° 0.1 mm 2 m/S 649 mmHg 48%
    15:00 +31°C° 0.3 mm 3 m/S 648 mmHg 52%
    16:00 +29°C° 0.3 mm 3 m/S 647 mmHg 56%
    17:00 +28°C° 0.3 mm 3 m/S 646 mmHg 60%
    18:00 +27°C° 0.3 mm 2 m/S 647 mmHg 62%
    19:00 +26°C° 0.3 mm 2 m/S 647 mmHg 65%
    20:00 +25°C° 0.3 mm 2 m/S 648 mmHg 68%
    21:00 +24°C° 0.2 mm 1 m/S 648 mmHg 68%
    22:00 +24°C° 0.2 mm 1 m/S 648 mmHg 69%
    23:00 +24°C° 0.2 mm 1 m/S 648 mmHg 69%

    übermorgen, 15 Dezember, Sonntag

    Zeit Temperatur Niederschläge Wind Luftdruck Luftfeuchtigkeit
    00:00 +23°C° 0 mm 1 m/S 648 mmHg 70%
    01:00 +23°C° 0 mm 1 m/S 647 mmHg 71%
    02:00 +22°C° 0 mm 1 m/S 647 mmHg 72%
    03:00 +22°C° 0 mm 1 m/S 647 mmHg 73%
    04:00 +22°C° 0 mm 1 m/S 647 mmHg 75%
    05:00 +22°C° 0 mm 1 m/S 648 mmHg 76%
    06:00 +23°C° 0 mm 1 m/S 649 mmHg 72%
    07:00 +25°C° 0 mm 2 m/S 650 mmHg 68%
    08:00 +27°C° 0 mm 2 m/S 651 mmHg 63%
    09:00 +27°C° 0.7 mm 3 m/S 651 mmHg 64%
    10:00 +27°C° 0.7 mm 3 m/S 651 mmHg 65%
    11:00 +28°C° 0.7 mm 3 m/S 651 mmHg 67%
    12:00 +27°C° 2.2 mm 3 m/S 651 mmHg 68%
    13:00 +27°C° 2.2 mm 3 m/S 650 mmHg 69%
    14:00 +27°C° 2.2 mm 3 m/S 650 mmHg 70%
    15:00 +26°C° 0.9 mm 2 m/S 649 mmHg 73%
    16:00 +25°C° 0.9 mm 2 m/S 648 mmHg 75%
    17:00 +25°C° 0.9 mm 2 m/S 648 mmHg 78%
    18:00 +24°C° 0.6 mm 2 m/S 648 mmHg 82%
    19:00 +23°C° 0.6 mm 2 m/S 649 mmHg 86%
    20:00 +22°C° 0.6 mm 1 m/S 649 mmHg 90%
    21:00 +22°C° 0.2 mm 1 m/S 649 mmHg 90%
    22:00 +21°C° 0.2 mm 1 m/S 649 mmHg 90%
    23:00 +21°C° 0.2 mm 1 m/S 650 mmHg 89%

    16 Dezember, Montag

    Zeit Temperatur Niederschläge Wind Luftdruck Luftfeuchtigkeit
    00:00 +21°C° 0.2 mm 1 m/S 649 mmHg 90%
    01:00 +19°C° 0.2 mm 0 m/S 649 mmHg 90%
    02:00 +19°C° 0.2 mm 0 m/S 649 mmHg 90%
    03:00 +18°C° 0.1 mm 0 m/S 648 mmHg 91%
    04:00 +18°C° 0.1 mm 0 m/S 648 mmHg 93%
    05:00 +17°C° 0.1 mm 0 m/S 648 mmHg 94%
    06:00 +20°C° 0.2 mm 1 m/S 648 mmHg 92%
    07:00 +21°C° 0.2 mm 1 m/S 648 mmHg 91%
    08:00 +21°C° 0.2 mm 1 m/S 648 mmHg 89%
    09:00 +23°C° 0.2 mm 1 m/S 648 mmHg 82%
    10:00 +24°C° 0.2 mm 2 m/S 648 mmHg 74%
    11:00 +26°C° 0.2 mm 2 m/S 648 mmHg 67%
    12:00 +26°C° 0.2 mm 2 m/S 647 mmHg 65%
    13:00 +26°C° 0.2 mm 2 m/S 646 mmHg 63%
    14:00 +27°C° 0.2 mm 1 m/S 646 mmHg 62%
    15:00 +25°C° 0.1 mm 2 m/S 646 mmHg 65%
    16:00 +24°C° 0.1 mm 2 m/S 645 mmHg 69%
    17:00 +23°C° 0.1 mm 2 m/S 645 mmHg 73%
    18:00 +21°C° 0.2 mm 2 m/S 646 mmHg 75%
    19:00 +21°C° 0.2 mm 2 m/S 647 mmHg 78%
    20:00 +20°C° 0.2 mm 2 m/S 648 mmHg 80%
    21:00 +19°C° 0.3 mm 2 m/S 649 mmHg 84%
    22:00 +19°C° 0.3 mm 2 m/S 649 mmHg 88%
    23:00 +18°C° 0.3 mm 2 m/S 650 mmHg 93%

    17 Dezember, Dienstag

    Zeit Temperatur Niederschläge Wind Luftdruck Luftfeuchtigkeit
    00:00 +18°C° 0.4 mm 2 m/S 650 mmHg 93%
    01:00 +17°C° 0.4 mm 2 m/S 649 mmHg 94%
    02:00 +16°C° 0.4 mm 1 m/S 649 mmHg 95%
    03:00 +16°C° 0.3 mm 1 m/S 649 mmHg 95%
    04:00 +16°C° 0.3 mm 1 m/S 649 mmHg 94%
    05:00 +16°C° 0.3 mm 1 m/S 650 mmHg 94%
    06:00 +18°C° 0.3 mm 1 m/S 650 mmHg 93%
    07:00 +18°C° 0.3 mm 1 m/S 650 mmHg 93%
    08:00 +18°C° 0.3 mm 1 m/S 651 mmHg 92%
    09:00 +18°C° 0.2 mm 1 m/S 650 mmHg 91%
    10:00 +19°C° 0.2 mm 1 m/S 650 mmHg 90%
    11:00 +19°C° 0.2 mm 1 m/S 650 mmHg 89%
    12:00 +20°C° 0 mm 1 m/S 649 mmHg 83%
    13:00 +22°C° 0 mm 1 m/S 649 mmHg 76%
    14:00 +24°C° 0 mm 2 m/S 648 mmHg 70%
    15:00 +24°C° 0.1 mm 2 m/S 648 mmHg 69%
    16:00 +24°C° 0.1 mm 2 m/S 647 mmHg 68%
    17:00 +24°C° 0.1 mm 2 m/S 647 mmHg 67%
    18:00 +23°C° 0.1 mm 1 m/S 647 mmHg 73%
    19:00 +21°C° 0.1 mm 1 m/S 647 mmHg 78%
    20:00 +18°C° 0.1 mm 0 m/S 648 mmHg 84%
    21:00 +18°C° 0 mm 0 m/S 648 mmHg 85%
    22:00 +17°C° 0 mm 0 m/S 648 mmHg 86%
    23:00 +17°C° 0 mm 0 m/S 649 mmHg 88%

    18 Dezember, Mittwoch

    Zeit Temperatur Niederschläge Wind Luftdruck Luftfeuchtigkeit
    00:00 +17°C° 0 mm 0 m/S 648 mmHg 88%
    01:00 +16°C° 0 mm 0 m/S 648 mmHg 88%
    02:00 +16°C° 0 mm 0 m/S 647 mmHg 89%
    03:00 +16°C° 0 mm 0 m/S 648 mmHg 89%
    04:00 +16°C° 0 mm 0 m/S 648 mmHg 89%
    05:00 +16°C° 0 mm 0 m/S 648 mmHg 89%
    06:00 +18°C° 0 mm 0 m/S 648 mmHg 82%
    07:00 +19°C° 0 mm 0 m/S 649 mmHg 75%
    08:00 +21°C° 0 mm 0 m/S 650 mmHg 69%
    09:00 +24°C° 0 mm 1 m/S 650 mmHg 66%
    10:00 +25°C° 0 mm 1 m/S 650 mmHg 63%
    11:00 +26°C° 0 mm 2 m/S 650 mmHg 60%
    12:00 +27°C° 0 mm 2 m/S 649 mmHg 59%
    13:00 +27°C° 0 mm 2 m/S 648 mmHg 58%
    14:00 +27°C° 0 mm 2 m/S 648 mmHg 57%
    15:00 +27°C° 0 mm 2 m/S 647 mmHg 57%
    16:00 +27°C° 0 mm 2 m/S 647 mmHg 58%
    17:00 +27°C° 0 mm 2 m/S 646 mmHg 58%
    18:00 +26°C° 0 mm 2 m/S 647 mmHg 63%
    19:00 +24°C° 0 mm 1 m/S 647 mmHg 67%
    20:00 +23°C° 0 mm 1 m/S 647 mmHg 72%
    21:00 +23°C° 0 mm 1 m/S 647 mmHg 73%
    22:00 +22°C° 0 mm 1 m/S 648 mmHg 74%
    23:00 +22°C° 0 mm 1 m/S 648 mmHg 75%
    Mehr zeigen